Weather History for KPVC - February, 2014

Change the Weather History Date:

Friday, February 28, 2014

  Actual Average Record
Temperature  
Mean Temperature 16 °F -  
Max Temperature 24 °F 38 °F 51 °F (2011)
Min Temperature 8 °F 27 °F 8 °F (2014)
Degree Days  
Heating Degree Days 49    
Moisture  
Dew Point 0 °F    
Average Humidity 47    
Maximum Humidity 73    
Minimum Humidity 26    
Precipitation  
Precipitation 0.53 in - - ()
Sea Level Pressure  
Sea Level Pressure 30.24 in    
Wind  
Wind Speed 19 mph (WNW)    
Max Wind Speed 31 mph    
Max Gust Speed 44 mph    
Visibility 10 miles    
Events      
Averages and records for this station are not official NWS values.
T = Trace of Precipitation, MM = Missing Value Source: NWS Daily Summary

Daily Weather History Graph

Daily Weather History Graph

Search for Another Location

Airport or City:

Trip Planner

Search our weather history database for the weather conditions in past years. The results will help you decide how hot, cold, wet, or windy it might be!

Date:

Astronomy

Feb. 28, 2014 Rise Set
Actual Time 6:17 AM EST 5:29 PM EST
Civil Twilight 5:49 AM EST 5:57 PM EST
Nautical Twilight 5:17 AM EST 6:30 PM EST
Astronomical Twilight 4:44 AM EST 7:02 PM EST
Moon 5:30 AM EST (2/28) 5:03 PM EST (2/28)
Length of Visible Light 12h 08m
Length of Day
11h 12m
Waning Crescent, 1% of the Moon is Illuminated
Feb 28
Waning Crescent
Mar 1
New
Mar 8
First Quarter
Mar 16
Full
Mar 23
Last Quarter

Hourly Weather History & Observations

Time (EST) Temp. Windchill Dew Point Humidity Pressure Visibility Wind Dir Wind Speed Gust Speed Precip Events Conditions
12:15 AM 19.4 °F 0.5 °F 5.0 °F 54% 29.87 in 10.0 mi WNW 29.9 mph 35.7 mph N/A   Scattered Clouds
12:35 AM 19.4 °F 2.1 °F 3.2 °F 49% 29.89 in 10.0 mi WNW 24.2 mph 35.7 mph N/A   Partly Cloudy
12:55 AM 17.6 °F -1.0 °F 3.2 °F 53% 29.90 in 10.0 mi WNW 26.5 mph 33.4 mph 0.01 in   Partly Cloudy
1:15 AM 17.6 °F -0.3 °F 1.4 °F 49% 29.92 in 10.0 mi West 24.2 mph 35.7 mph 0.01 in   Clear
1:35 AM 17.6 °F -1.3 °F -0.4 °F 45% 29.94 in 10.0 mi West 27.6 mph 34.5 mph 0.01 in   Clear
1:55 AM 15.8 °F -2.3 °F 1.4 °F 53% 29.95 in 10.0 mi WNW 23.0 mph 34.5 mph 0.01 in   Clear
2:15 AM 15.8 °F -3.4 °F -2.2 °F 45% 29.96 in 10.0 mi West 26.5 mph 34.5 mph N/A   Clear
2:35 AM 15.8 °F -2.7 °F -0.4 °F 49% 29.98 in 10.0 mi WNW 24.2 mph 33.4 mph 0.03 in   Clear
2:55 AM 15.8 °F -2.3 °F 1.4 °F 53% 29.98 in 10.0 mi WNW 23.0 mph 36.8 mph 0.05 in   Partly Cloudy
3:15 AM 14.0 °F -5.1 °F -2.2 °F 49% 30.00 in 10.0 mi WNW 24.2 mph 35.7 mph 0.02 in   Clear
3:35 AM 14.0 °F -6.5 °F -2.2 °F 49% 30.00 in 10.0 mi WNW 28.8 mph 35.7 mph 0.03 in   Clear
3:55 AM 14.0 °F -6.2 °F -7.6 °F 38% 30.02 in 10.0 mi West 27.6 mph 36.8 mph 0.03 in   Clear
4:15 AM 12.2 °F -9.6 °F -2.2 °F 53% 30.04 in 10.0 mi WNW 31.1 mph 43.7 mph 0.02 in   Partly Cloudy
4:35 AM 12.2 °F -8.2 °F -2.2 °F 53% 30.05 in 10.0 mi WNW 26.5 mph 36.8 mph 0.02 in   Scattered Clouds
4:55 AM 12.2 °F -8.6 °F -2.2 °F 53% 30.06 in 10.0 mi WNW 27.6 mph 39.1 mph 0.03 in   Partly Cloudy
5:15 AM 12.2 °F -7.9 °F -0.4 °F 57% 30.08 in 10.0 mi WNW 25.3 mph 34.5 mph 0.01 in   Partly Cloudy
5:35 AM 12.2 °F -7.1 °F -0.4 °F 57% 30.08 in 10.0 mi NW 23.0 mph 33.4 mph 0.03 in   Scattered Clouds
5:55 AM 12.2 °F -7.5 °F 1.4 °F 62% 30.10 in 10.0 mi WNW 24.2 mph 34.5 mph 0.04 in   Mostly Cloudy
6:15 AM 14.0 °F -5.1 °F 1.4 °F 57% 30.11 in 10.0 mi NW 24.2 mph 36.8 mph N/A   Mostly Cloudy
6:35 AM 14.0 °F -5.1 °F -0.4 °F 53% 30.13 in 10.0 mi NW 24.2 mph 38.0 mph N/A   Mostly Cloudy
6:55 AM 14.0 °F -5.5 °F 1.4 °F 57% 30.14 in 10.0 mi NW 25.3 mph 32.2 mph 0.01 in   Scattered Clouds
7:15 AM 15.8 °F -2.3 °F 1.4 °F 53% 30.16 in 10.0 mi NW 23.0 mph 33.4 mph N/A   Scattered Clouds
7:35 AM 15.8 °F -0.6 °F 3.2 °F 58% 30.18 in 10.0 mi NW 18.4 mph 31.1 mph 0.01 in   Partly Cloudy
7:55 AM 15.8 °F -1.5 °F 1.4 °F 53% 30.20 in 10.0 mi NW 20.7 mph 27.6 mph 0.01 in   Partly Cloudy
8:15 AM 15.8 °F -1.9 °F 3.2 °F 58% 30.21 in 10.0 mi NW 21.9 mph 27.6 mph N/A   Partly Cloudy
8:35 AM 17.6 °F 0.9 °F 3.2 °F 53% 30.21 in 10.0 mi NW 20.7 mph 29.9 mph N/A   Partly Cloudy
8:55 AM 17.6 °F 0.5 °F 3.2 °F 53% 30.23 in 10.0 mi NW 21.9 mph 31.1 mph 0.01 in   Clear
9:15 AM 17.6 °F 2.2 °F 5.0 °F 58% 30.24 in 10.0 mi NW 17.3 mph 28.8 mph 0.01 in   Clear
9:35 AM 17.6 °F 0.9 °F 1.4 °F 49% 30.25 in 10.0 mi NW 20.7 mph 27.6 mph 0.04 in   Clear
9:55 AM 19.4 °F 3.6 °F 6.8 °F 58% 30.25 in 10.0 mi NW 19.6 mph 26.5 mph 0.05 in   Clear
10:15 AM 19.4 °F 4.1 °F 3.2 °F 49% 30.27 in 10.0 mi NW 18.4 mph 26.5 mph N/A   Clear
10:35 AM 19.4 °F 4.5 °F 3.2 °F 49% 30.28 in 10.0 mi NW 17.3 mph 25.3 mph 0.01 in   Clear
10:55 AM 21.2 °F 7.8 °F 3.2 °F 46% 30.29 in 10.0 mi NW 15.0 mph 24.2 mph 0.02 in   Clear
11:15 AM 21.2 °F 8.3 °F 3.2 °F 46% 30.30 in 10.0 mi NW 13.8 mph 20.7 mph N/A   Clear
11:35 AM 21.2 °F 8.3 °F 3.2 °F 46% 30.31 in 10.0 mi NW 13.8 mph 18.4 mph N/A   Clear
11:55 AM 21.2 °F 7.8 °F 1.4 °F 42% 30.30 in 10.0 mi WNW 15.0 mph 20.7 mph 0.02 in   Clear
12:15 PM 21.2 °F 8.9 °F 1.4 °F 42% 30.30 in 10.0 mi WNW 12.7 mph - N/A   Clear
12:35 PM 23.0 °F 10.1 °F 1.4 °F 39% 30.30 in 10.0 mi NW 15.0 mph 19.6 mph 0.01 in   Clear
12:55 PM 23.0 °F 10.1 °F -0.4 °F 36% 30.29 in 10.0 mi WNW 15.0 mph 18.4 mph 0.01 in   Clear
1:15 PM 23.0 °F 11.1 °F 1.4 °F 39% 30.29 in 10.0 mi WNW 12.7 mph 19.6 mph N/A   Clear
1:35 PM 24.8 °F 14.0 °F -0.4 °F 34% 30.30 in 10.0 mi WNW 11.5 mph 16.1 mph N/A   Clear
1:55 PM 23.0 °F 11.1 °F -0.4 °F 36% 30.31 in 10.0 mi WNW 12.7 mph 17.3 mph 0.01 in   Clear
2:15 PM 24.8 °F 14.6 °F -2.2 °F 31% 30.32 in 10.0 mi NW 10.4 mph - N/A   Clear
2:35 PM 23.0 °F 13.9 °F -0.4 °F 36% 30.33 in 10.0 mi West 8.1 mph - N/A   Clear
2:55 PM 24.8 °F 15.3 °F -2.2 °F 31% 30.33 in 10.0 mi West 9.2 mph - N/A   Clear
3:15 PM 24.8 °F 15.3 °F -4.0 °F 28% 30.34 in 10.0 mi WNW 9.2 mph - 0.01 in   Clear
3:35 PM 24.8 °F 15.3 °F -4.0 °F 28% 30.35 in 10.0 mi WNW 9.2 mph - 0.03 in   Clear
3:55 PM 23.0 °F 15.8 °F -4.0 °F 31% 30.35 in 10.0 mi WNW 5.8 mph - 0.03 in   Clear
4:15 PM 24.8 °F 17.9 °F -4.0 °F 28% 30.35 in 10.0 mi West 5.8 mph - 0.01 in   Clear
4:35 PM 24.8 °F 16.9 °F -5.8 °F 26% 30.36 in 10.0 mi WNW 6.9 mph - 0.02 in   Clear
4:55 PM 23.0 °F 17.0 °F -5.8 °F 28% 30.36 in 10.0 mi NNW 4.6 mph - 0.02 in   Clear
5:15 PM 23.0 °F 14.7 °F -4.0 °F 31% 30.37 in 10.0 mi West 6.9 mph - 0.01 in   Clear
5:35 PM 21.2 °F 12.6 °F -5.8 °F 30% 30.37 in 10.0 mi WNW 6.9 mph - 0.01 in   Clear
5:55 PM 21.2 °F 14.9 °F -7.6 °F 28% 30.37 in 10.0 mi West 4.6 mph - 0.01 in   Clear
6:15 PM 21.2 °F 13.6 °F -5.8 °F 30% 30.38 in 10.0 mi West 5.8 mph - 0.01 in   Clear
6:35 PM 21.2 °F 14.9 °F -5.8 °F 30% 30.38 in 10.0 mi West 4.6 mph - 0.04 in   Clear
6:55 PM 19.4 °F 12.8 °F -4.0 °F 36% 30.38 in 10.0 mi West 4.6 mph - 0.04 in   Clear
7:15 PM 19.4 °F 12.8 °F -0.4 °F 42% 30.39 in 10.0 mi West 4.6 mph - N/A   Clear
7:35 PM 15.8 °F 8.6 °F -2.2 °F 45% 30.39 in 10.0 mi West 4.6 mph - N/A   Clear
7:55 PM 14.0 °F 8.2 °F -2.2 °F 49% 30.39 in 10.0 mi West 3.5 mph - 0.01 in   Clear
8:15 PM 14.0 °F 8.2 °F 1.4 °F 57% 30.40 in 10.0 mi WSW 3.5 mph - N/A   Clear
8:35 PM 12.2 °F - -2.2 °F 53% 30.41 in 10.0 mi Calm Calm - N/A   Clear
8:55 PM 12.2 °F - 1.4 °F 62% 30.42 in 10.0 mi Calm Calm - N/A   Clear
9:15 PM 10.4 °F - -2.2 °F 57% 30.42 in 10.0 mi Calm Calm - 0.01 in   Clear
9:35 PM 10.4 °F - -0.4 °F 62% 30.42 in 10.0 mi Calm Calm - 0.04 in   Clear
9:55 PM 10.4 °F - -2.2 °F 57% 30.43 in 10.0 mi Calm Calm - 0.06 in   Clear
10:15 PM 10.4 °F - 1.4 °F 67% 30.43 in 10.0 mi Calm Calm - 0.02 in   Clear
10:35 PM 8.6 °F - -2.2 °F 62% 30.44 in 10.0 mi Calm Calm - 0.03 in   Clear
10:55 PM 10.4 °F - -0.4 °F 62% 30.43 in 10.0 mi Calm Calm - 0.04 in   Clear
11:15 PM 10.4 °F 4.0 °F 1.4 °F 67% 30.44 in 10.0 mi SW 3.5 mph - 0.01 in   Clear
11:35 PM 10.4 °F - 1.4 °F 67% 30.44 in 10.0 mi Calm Calm - 0.01 in   Clear
11:55 PM 8.6 °F - 1.4 °F 73% 30.44 in 10.0 mi Calm Calm - 0.01 in   Clear